[[{"header":{"parameterUnit":"m.s-1","parameterCategory":1,"la1":30.2991,"la2":30.254,"lo1":-89.0895,"lo2":-89.0444,"dy":0.0017,"dx":0.0017,"nx":28,"ny":28,"refTime":"2024-06-12T21:00:00:Z","depth":0,"parameterNumber":2,"parameterNumberName":"U-component_of_WINDS"},"data":[0,0,0,0,0,0,0,0,0,0,0,0,0,0,0,0,0,0,0,0,0,0,0,0,0,0,0,0,0,0,0,0,0,0,0,0,0,0,0,0,0,0,0,0,0,0,0,0,0,0,0,0,0,0,0,0,0,0,-2.6907,-2.6906,0,-2.6872,-2.6872,-2.6872,-2.6812,-2.6811,-2.681,-2.6809,-2.6774,-2.6774,-2.6774,0,0,0,0,0,0,0,0,0,0,0,0,0,-2.6923,-2.6923,-2.6907,-2.6906,-2.6906,-2.6872,-2.6872,-2.6871,-2.6813,-2.6811,-2.681,-2.6809,-2.6774,-2.6774,-2.6774,0,0,0,0,0,0,0,0,0,0,0,0,0,-2.6905,-2.6923,-2.6907,-2.6872,-2.6869,-2.6873,-2.6872,-2.6871,-2.6813,-2.6811,-2.6809,-2.6808,-2.6774,-2.6774,-2.6774,-2.6809,0,0,-2.6775,-2.6775,0,0,0,0,0,0,0,0,-2.6906,-2.6904,-2.6878,-2.6875,-2.6871,-2.6845,-2.6865,-2.685,-2.6813,-2.6834,-2.6809,-2.6807,-2.6799,-2.6797,-2.6794,-2.6807,-2.6806,-2.6775,-2.6775,-2.6775,-2.6775,0,0,0,0,0,0,0,-2.6907,-2.6905,-2.6893,-2.6878,-2.6873,-2.6859,-2.6855,-2.6862,-2.6826,-2.6832,-2.6828,-2.6825,-2.6797,-2.6794,-2.6793,-2.6805,-2.6775,-2.6775,-2.6775,-2.6775,-2.6847,-2.6848,0,0,0,0,0,0,-2.6913,-2.6907,-2.6894,-2.6892,-2.6885,-2.686,-2.6855,-2.6855,-2.6826,-2.682,-2.6826,-2.6822,-2.6795,-2.6793,-2.6792,-2.6831,-2.6775,-2.6775,-2.6775,-2.6845,-2.6847,-2.6849,0,0,0,0,0,0,-2.6914,-2.6913,-2.6895,-2.6898,-2.6895,-2.6862,-2.6862,-2.6855,-2.6852,-2.6821,-2.6815,-2.683,-2.6793,-2.6791,-2.6805,-2.6829,-2.6775,-2.6775,-2.6843,-2.6846,-2.6848,-2.691,0,0,0,0,0,0,-2.6915,-2.6913,-2.6925,-2.6899,-2.6895,-2.691,-2.6863,-2.6856,-2.6853,-2.6847,-2.6823,-2.6818,-2.6792,-2.6805,-2.6806,-2.6828,-2.6775,-2.6841,-2.6844,-2.6847,-2.6905,-2.6914,-2.6922,0,0,0,0,0,-2.6915,-2.6944,-2.6926,-2.6925,-2.691,-2.6911,-2.6909,-2.6878,-2.6855,-2.6867,-2.6848,-2.6818,-2.6827,-2.6807,-2.6807,-2.683,-2.6839,-2.6843,-2.6847,-2.6902,-2.6913,-2.6922,0,0,0,0,0,0,-2.6973,-2.6939,-2.692,-2.694,-2.6929,-2.6901,-2.6915,-2.689,-2.6885,-2.688,-2.6843,-2.6838,-2.6858,-2.6845,-2.6824,-2.6863,-2.6828,-2.6833,-2.687,-2.688,-2.6888,-2.689,-2.6776,0,0,0,0,0,-2.6988,-2.6992,-2.6963,-2.6984,-2.6979,-2.6949,-2.6948,-2.6926,-2.6913,-2.6907,-2.6889,-2.6877,-2.6877,-2.6878,-2.6876,-2.6904,-2.6899,-2.692,-2.6928,-2.6935,-2.6939,-2.6954,-2.6964,-2.6862,-2.6862,-2.6862,0,0,-2.7019,-2.7002,-2.7006,-2.6995,-2.6983,-2.6989,-2.6945,-2.6952,-2.6956,-2.6908,-2.6921,-2.6907,-2.6892,-2.6914,-2.6922,-2.6904,-2.6966,-2.694,-2.6946,-2.6946,-2.6959,-2.6969,-2.6978,-2.6865,-2.6865,-2.6864,0,0,-2.7079,-2.7066,-2.7082,-2.7072,-2.7056,-2.7036,-2.7041,-2.7017,-2.7006,-2.7018,-2.6983,-2.6988,-2.6988,-2.698,-2.6975,-2.7035,-2.7008,-2.7035,-2.7078,-2.7093,-2.7101,-2.7108,-2.713,-2.7139,-2.704,-2.704,-2.704,0,-2.712,-2.7126,-2.7094,-2.7104,-2.7101,-2.7059,-2.7077,-2.7069,-2.7053,-2.7052,-2.7032,-2.7033,-2.702,-2.704,-2.7055,-2.7052,-2.7057,-2.7037,-2.7103,-2.7109,-2.7115,-2.7136,-2.7144,-2.7043,-2.7043,-2.7042,-2.7042,0,-2.7177,-2.7183,-2.7198,-2.7185,-2.7183,-2.7197,-2.7168,-2.7171,-2.715,-2.7132,-2.7146,-2.7129,-2.7124,-2.7128,-2.7106,-2.7145,-2.7134,-2.7109,-2.7073,-2.7129,-2.7148,-2.7155,-2.7048,-2.7047,-2.7046,-2.7045,0,0,-2.727,-2.7241,-2.7247,-2.7241,-2.7222,-2.7225,-2.7238,-2.7234,-2.7237,-2.7228,-2.7239,-2.7242,-2.7219,-2.7214,-2.7192,-2.7206,-2.7256,-2.7179,-2.7178,-2.7194,-2.7299,-2.7318,-2.7328,-2.7239,-2.724,-2.7241,-2.73,0,-2.7325,-2.7345,-2.7318,-2.7344,-2.7349,-2.7311,-2.7323,-2.7313,-2.7297,-2.73,-2.7283,-2.7286,-2.7256,-2.7253,-2.7265,-2.7247,-2.7276,-2.7243,-2.7248,-2.7249,-2.7253,-2.7337,-2.7357,-2.7413,-2.7307,-2.7309,-2.731,0,-2.7392,-2.7388,-2.7414,-2.7395,-2.7396,-2.7407,-2.7402,-2.7405,-2.7393,-2.7381,-2.7378,-2.7352,-2.7365,-2.7331,-2.7348,-2.7326,-2.7327,-2.7319,-2.7321,-2.732,-2.7282,-2.7339,-2.7431,-2.7439,-2.7321,-2.732,-2.7319,0,-2.7458,-2.7459,-2.7475,-2.7471,-2.7449,-2.7458,-2.7449,-2.7436,-2.7436,-2.7432,-2.7432,-2.7429,-2.7428,-2.7427,-2.7402,-2.738,-2.7423,-2.7387,-2.7414,-2.7415,-2.7424,-2.7424,-2.7518,-2.7425,-2.7425,-2.7425,-2.7425,0,-2.7522,-2.754,-2.7505,-2.7515,-2.7534,-2.7504,-2.7525,-2.7512,-2.7501,-2.7509,-2.7477,-2.7485,-2.7452,-2.7457,-2.7438,-2.7456,-2.7455,-2.7446,-2.7441,-2.7449,-2.745,-2.7449,-2.7444,-2.7427,-2.7427,-2.7426,-2.7426,0,-2.7598,-2.7575,-2.7591,-2.757,-2.7565,-2.758,-2.7562,-2.7571,-2.7555,-2.7566,-2.7566,-2.7541,-2.7545,-2.7521,-2.7521,-2.7508,-2.7536,-2.7524,-2.754,-2.7536,-2.7565,-2.7563,-2.7661,-2.7673,-2.7573,-2.7574,-2.7575,0,-2.7641,-2.7654,-2.7635,-2.7638,-2.7631,-2.7636,-2.7637,-2.7608,-2.761,-2.7599,-2.761,-2.7612,-2.7612,-2.7622,-2.7603,-2.7604,-2.7592,-2.7626,-2.7591,-2.76,-2.7593,-2.7592,-2.7594,-2.7633,-2.7634,-2.7635,-2.7636,0,-2.7719,-2.7708,-2.7709,-2.7708,-2.7709,-2.7706,-2.7701,-2.7706,-2.7675,-2.7679,-2.7684,-2.7684,-2.7685,-2.7688,-2.7685,-2.7677,-2.7652,-2.7648,-2.7654,-2.7662,-2.7671,-2.7668,-2.756,-2.7645,-2.7644,-2.7644,-2.7643,-2.7643,-2.778,-2.7791,-2.7779,-2.7783,-2.7776,-2.7773,-2.7781,-2.7767,-2.777,-2.7769,-2.7752,-2.7761,-2.7751,-2.7745,-2.7739,-2.7746,-2.773,-2.7739,-2.7741,-2.7744,-2.7749,-2.7671,-2.7745,-2.7745,-2.7745,-2.7745,-2.7744,0,-2.7857,-2.7848,-2.7852,-2.7847,-2.785,-2.7827,-2.7822,-2.7826,-2.7834,-2.7827,-2.7828,-2.7835,-2.7838,-2.7821,-2.7823,-2.7831,-2.782,-2.7833,-2.7832,-2.7831,-2.7763,-2.7758,-2.7842,-2.7842,-2.7842,-2.7842,-2.7842,-2.7842,-2.7897,-2.7915,-2.7902,-2.7917,-2.7908,-2.7916,-2.7915,-2.7913,-2.7908,-2.7916,-2.7919,-2.7908,-2.7898,-2.7899,-2.7902,-2.7897,-2.7899,-2.7916,-2.7907,-2.7845,-2.7835,-2.7826,-2.7821,-2.7916,-2.7916,-2.7973,-2.7974,-2.7974]},{"header":{"parameterUnit":"m.s-1","parameterCategory":1,"la1":30.2991,"la2":30.254,"lo1":-89.0895,"lo2":-89.0444,"dy":0.0017,"dx":0.0017,"nx":28,"ny":28,"refTime":"2024-06-12T21:00:00:Z","depth":0,"parameterNumber":3,"parameterNumberName":"V-component_of_WINDS"},"data":[0,0,0,0,0,0,0,0,0,0,0,0,0,0,0,0,0,0,0,0,0,0,0,0,0,0,0,0,0,0,0,0,0,0,0,0,0,0,0,0,0,0,0,0,0,0,0,0,0,0,0,0,0,0,0,0,0,0,1.5026,1.5027,0,1.5146,1.5148,1.5149,1.5219,1.5219,1.522,1.522,1.534,1.5342,1.5345,0,0,0,0,0,0,0,0,0,0,0,0,0,1.485,1.4853,1.5025,1.5027,1.5028,1.5146,1.5148,1.5149,1.5219,1.5219,1.522,1.522,1.5339,1.5342,1.5346,0,0,0,0,0,0,0,0,0,0,0,0,0,1.4944,1.4854,1.5025,1.5077,1.5083,1.5146,1.5148,1.515,1.5219,1.5219,1.522,1.522,1.5337,1.5342,1.5346,1.5365,0,0,1.5359,1.5361,0,0,0,0,0,0,0,0,1.4939,1.495,1.5068,1.5074,1.5081,1.5168,1.513,1.5222,1.5219,1.5167,1.522,1.522,1.5282,1.5291,1.5313,1.537,1.5375,1.536,1.5363,1.5364,1.5366,0,0,0,0,0,0,0,1.4932,1.4946,1.5073,1.507,1.5077,1.5093,1.5107,1.5148,1.5221,1.5172,1.5177,1.5191,1.5285,1.5308,1.5316,1.5377,1.536,1.5364,1.5366,1.5368,1.5454,1.5453,0,0,0,0,0,0,1.4918,1.494,1.5069,1.5077,1.5009,1.5096,1.5112,1.5139,1.522,1.5233,1.519,1.5193,1.53,1.5311,1.532,1.5346,1.5364,1.5369,1.5371,1.5454,1.5454,1.5453,0,0,0,0,0,0,1.4914,1.4929,1.5064,1.501,1.5028,1.5099,1.5129,1.5142,1.5165,1.5234,1.5247,1.52,1.5301,1.5314,1.5353,1.5351,1.537,1.5374,1.5455,1.5454,1.5454,1.5398,0,0,0,0,0,0,1.4908,1.4927,1.4936,1.501,1.5031,1.5096,1.513,1.5144,1.5172,1.5178,1.5247,1.5259,1.5302,1.5346,1.5357,1.5358,1.5378,1.5455,1.5454,1.5454,1.54,1.5396,1.5392,0,0,0,0,0,1.4902,1.4915,1.4936,1.4951,1.5044,1.5096,1.5108,1.5159,1.5172,1.5181,1.5225,1.5257,1.535,1.5349,1.5363,1.5364,1.5455,1.5455,1.5454,1.5402,1.5397,1.5392,0,0,0,0,0,0,1.4839,1.4926,1.495,1.4988,1.5034,1.5108,1.5121,1.5152,1.5194,1.5197,1.5257,1.5272,1.5305,1.5339,1.5337,1.5385,1.5406,1.5408,1.5362,1.5357,1.5353,1.5344,1.5382,0,0,0,0,0,1.483,1.4866,1.494,1.4966,1.4988,1.505,1.5075,1.5109,1.5159,1.5179,1.5227,1.5272,1.5312,1.5337,1.5377,1.5406,1.5421,1.5413,1.5409,1.5405,1.5405,1.5421,1.5418,1.5451,1.5451,1.5451,0,0,1.481,1.4862,1.4882,1.4954,1.4994,1.5029,1.5066,1.5102,1.5127,1.5184,1.5224,1.526,1.5315,1.5348,1.5365,1.5377,1.54,1.5404,1.54,1.5403,1.542,1.5417,1.5414,1.545,1.545,1.545,0,0,1.4793,1.4837,1.4862,1.4901,1.4962,1.5003,1.5009,1.5078,1.5104,1.5145,1.5187,1.5218,1.5285,1.5322,1.535,1.5344,1.5374,1.5355,1.5332,1.5347,1.5344,1.5342,1.5338,1.5336,1.5356,1.5356,1.5356,0,1.4761,1.4817,1.4871,1.4904,1.4934,1.4987,1.5013,1.5048,1.5117,1.5135,1.5148,1.5233,1.5274,1.5315,1.5314,1.5335,1.5342,1.5347,1.534,1.5339,1.5338,1.5335,1.5333,1.5353,1.5353,1.5353,1.5354,0,1.4773,1.4811,1.4824,1.4891,1.4922,1.495,1.5008,1.5032,1.5064,1.5103,1.5142,1.5193,1.5244,1.5256,1.5288,1.5302,1.5307,1.5329,1.5351,1.5331,1.5329,1.5328,1.5349,1.535,1.5351,1.5351,0,0,1.4721,1.4816,1.482,1.485,1.4919,1.4948,1.4978,1.5029,1.5048,1.5093,1.5119,1.5173,1.5194,1.5225,1.5261,1.5273,1.5263,1.5294,1.5296,1.5285,1.5279,1.5261,1.5259,1.5284,1.5284,1.5284,1.5274,0,1.4712,1.477,1.4819,1.4859,1.4892,1.4943,1.4969,1.5013,1.5049,1.5082,1.5122,1.516,1.5185,1.5204,1.5219,1.5261,1.5262,1.5263,1.5306,1.5307,1.5289,1.5259,1.524,1.5229,1.5274,1.5274,1.5274,0,1.4711,1.4755,1.4797,1.4861,1.4877,1.49,1.4949,1.498,1.503,1.5056,1.509,1.5127,1.5159,1.5177,1.5221,1.5219,1.524,1.5263,1.5264,1.5269,1.5288,1.5261,1.5227,1.5224,1.5274,1.5274,1.5274,0,1.4666,1.4735,1.477,1.4794,1.487,1.4884,1.4916,1.4967,1.4993,1.5035,1.5053,1.5098,1.5122,1.5155,1.5202,1.5212,1.524,1.5263,1.526,1.5259,1.5263,1.5262,1.523,1.5278,1.5278,1.5278,1.5278,0,1.4651,1.4674,1.475,1.4771,1.4798,1.4853,1.4878,1.4914,1.4958,1.4986,1.5032,1.5056,1.5118,1.5148,1.5185,1.5215,1.5226,1.5246,1.5255,1.5241,1.5238,1.5254,1.5256,1.5278,1.5278,1.5278,1.5278,0,1.4606,1.4657,1.4697,1.4766,1.4783,1.48,1.4858,1.4879,1.4917,1.4951,1.4962,1.5022,1.5061,1.5111,1.5166,1.5191,1.5215,1.523,1.5198,1.5203,1.5197,1.5196,1.5173,1.5172,1.5222,1.5221,1.5221,0,1.4592,1.4612,1.4682,1.4703,1.4734,1.4769,1.4796,1.485,1.4876,1.4933,1.4946,1.4989,1.5026,1.5084,1.5132,1.5173,1.5189,1.5178,1.5196,1.518,1.5187,1.5185,1.5186,1.5173,1.5173,1.5172,1.5171,0,1.4562,1.4587,1.4624,1.467,1.4701,1.4739,1.478,1.4795,1.4857,1.4883,1.4924,1.4952,1.5007,1.5048,1.5095,1.5126,1.5158,1.5166,1.5167,1.5152,1.5132,1.5141,1.5184,1.5166,1.5166,1.5167,1.5167,1.5167,1.4532,1.455,1.4602,1.4642,1.4678,1.4714,1.4736,1.4777,1.4812,1.4862,1.4891,1.493,1.4977,1.5044,1.5074,1.5104,1.5116,1.5118,1.5119,1.5118,1.5112,1.5128,1.5113,1.5113,1.5113,1.5113,1.5113,0,1.4503,1.4538,1.4574,1.4629,1.4659,1.4688,1.4734,1.4757,1.479,1.4832,1.4867,1.4912,1.4951,1.5001,1.5043,1.5057,1.5072,1.5066,1.5065,1.5071,1.51,1.5094,1.5053,1.5053,1.5053,1.5053,1.5053,1.5053,1.4491,1.4524,1.4553,1.4603,1.4638,1.4676,1.47,1.4732,1.4766,1.4814,1.4847,1.488,1.4924,1.497,1.5006,1.502,1.5032,1.502,1.5038,1.5064,1.5069,1.5074,1.5069,1.5023,1.5023,1.5007,1.5007,1.5007]}]]